Weather History for Puerto Plata, Dominican Republic

Change the Weather History Date:

Tuesday, April 23, 2013

  Actual Average Record
Temperature  
Mean Temperature 81 °F -  
Max Temperature 89 °F 84 °F 89 °F (2013)
Min Temperature 73 °F 72 °F 69 °F (2001)
Cooling Degree Days 16    
Growing Degree Days 31 (Base 50)    
Moisture  
Dew Point 72 °F    
Average Humidity 71    
Maximum Humidity 94    
Minimum Humidity 55    
Precipitation  
Precipitation 0.00 in - - ()
Sea Level Pressure  
Sea Level Pressure 29.93 in    
Wind  
Wind Speed 8 mph ()    
Max Wind Speed 23 mph    
Max Gust Speed -    
Visibility 7.1 miles    
Events Thunderstorm    
Averages and records for this station are not official NWS values.
T = Trace of Precipitation, MM = Missing Value Source: Averaged Metar Reports

Daily Weather History Graph

Daily Weather History Graph

Search for Another Location

Airport:

Trip Planner

Search our weather history database for the weather conditions in past years. The results will help you decide how hot, cold, wet, or windy it might be!

Date:

Astronomy

Apr. 23, 2013 Rise Set
Actual Time 6:18 AM AST 7:02 PM AST
Civil Twilight 5:55 AM AST 7:25 PM AST
Nautical Twilight 5:29 AM AST 7:52 PM AST
Astronomical Twilight 5:01 AM AST 8:19 PM AST
Moon 5:07 PM AST (4/23) 4:26 AM AST (4/23)
Length of Visible Light 13h 29m
Length of Day
12h 44m
Waxing Gibbous, 94% of the Moon is Illuminated
Apr 23
Waxing Gibbous
Apr 25
Full
May 2
Last Quarter
May 9
New
May 18
First Quarter

Hourly Weather History & Observations

Time (AST) Temp. Heat Index Dew Point Humidity Pressure Visibility Wind Dir Wind Speed Gust Speed Precip Events Conditions
2:00 AM 75.2 °F - 69.8 °F 83% 29.98 in 6.2 mi ENE 6.9 mph - N/A   Partly Cloudy
5:00 AM 74 °F - 69 °F 79% 29.92 in 10 mi Calm Calm - -   Scattered Clouds
5:00 AM 73.4 °F - 71.6 °F 94% 29.92 in 6.2 mi Calm Calm - N/A   Scattered Clouds
8:00 AM 77.0 °F - 69.8 °F 78% 29.98 in 6.2 mi Calm Calm - N/A   Partly Cloudy
9:00 AM 80.6 °F 83.9 °F 69.8 °F 70% 29.98 in 6.2 mi SE 9.2 mph - N/A   Partly Cloudy
10:00 AM 82.4 °F 87.2 °F 71.6 °F 70% 29.98 in 6.2 mi SSE 16.1 mph - N/A   Partly Cloudy
11:00 AM 86.0 °F 93.4 °F 73.4 °F 66% 29.95 in 6.2 mi ESE 16.1 mph - N/A   Partly Cloudy
12:00 PM 89.6 °F 96.2 °F 71.6 °F 55% 29.95 in 6.2 mi South 13.8 mph - N/A   Partly Cloudy
1:00 PM 89.6 °F 98.2 °F 73.4 °F 59% 29.92 in 6.2 mi East 18.4 mph - N/A   Partly Cloudy
2:00 PM 87 °F - 73 °F 55% 29.92 in 10 mi ENE 22.4 mph - -   Scattered Clouds
2:00 PM 87.8 °F 95.6 °F 73.4 °F 62% 29.92 in 6.2 mi ENE 23.0 mph - N/A   Partly Cloudy
3:00 PM 87.8 °F 95.6 °F 73.4 °F 62% 29.89 in 6.2 mi East 17.3 mph - N/A   Partly Cloudy
4:00 PM 86.0 °F 93.4 °F 73.4 °F 66% 29.86 in 6.2 mi East 13.8 mph - N/A   Partly Cloudy
5:00 PM 85 °F - 71 °F 55% 29.88 in 10 mi East 13.4 mph - -   Scattered Clouds
5:00 PM 84.2 °F 89.6 °F 71.6 °F 66% 29.86 in 6.2 mi East 13.8 mph - N/A   Partly Cloudy
6:00 PM 82.4 °F 87.2 °F 71.6 °F 70% 29.89 in 6.2 mi East 11.5 mph - N/A   Partly Cloudy
7:00 PM 80.6 °F 84.6 °F 71.6 °F 74% 29.92 in 6.2 mi ESE 9.2 mph - N/A   Mostly Cloudy
8:00 PM 80 °F - 74 °F 76% 29.95 in 10 mi East 8.9 mph - -   Partly Cloudy
8:00 PM 78.8 °F - 73.4 °F 83% 29.95 in 6.2 mi East 9.2 mph - N/A Thunderstorm Light Thunderstorm
11:00 PM 79 °F - 73 °F 77% 29.99 in 10 mi Calm Calm - -   Partly Cloudy
11:00 PM 77.0 °F - 73.4 °F 89% 29.98 in 6.2 mi Calm Calm - N/A   Overcast